Content
SEND FEEDBACK

Daily
Averages
Monthly
Summary
United States of America

SUNDANCE, WYOMING


Home > North America > United States > Wyoming
Elevation: 4908 feet     Latitude: 44 24N     Longitude: 104 21W

WEATHER
 
SELECT A DAY
Number of Records: 227,730;   Date Range: 1/2/95 - 9/3/14
 
SHARE

PRINT THIS DATA

[ ← Previous Day ]
WEATHER ALMANAC - FEBRUARY 5, 2013
[ Next Day → ]
[ °C ]   °F
Weather ElementAverageHighLow
Temperature38.2 °F44.6 °F (12:35 pm)32 °F (6:55 am)
Dewpoint25 °F28.4 °F (3:55 pm)23 °F (10:15 am)
Humidity60 %80 % (6:55 am)43 % (1:55 pm)
Barometer29.87 in29.96 in (10:15 am)29.75 in (11:15 pm)
Wind Speed8 mph19.6 mph (1:35 am)
Wind Gust29.9 mph (1:35 am)
Weather ElementAverage
Visibility10 mi
Wind DirectionWSW (240.7 °)

Weather ElementTotal
Precipitation---
Heating Degree Days26.7 (Base 65)
Averaged from 68 records on February 5, 2013
WEATHER CONDITIONS BREAKOUT
WIND DIRECTION BREAKOUT
WEATHER BY HOUR - FEBRUARY 5, 2013
[ °C ]   °F
Local TimeTemperatureDewpointHumidityBarometerVisibilityWind DirectionWind SpeedGust SpeedPrecipitationEventsConditions
12:55 AM39.2 °F26.6 °F61 %29.85 in10.0 miWNW (290°)15.0 mph20.7 mphRainLight Rain
1:15 AM39.2 °F26.6 °F61 %29.84 in10.0 miWNW (290°)18.4 mph25.3 mphRainLight Rain
1:35 AM39.2 °F24.8 °F56 %29.85 in10.0 miWNW (300°)19.6 mph29.9 mphRainLight Rain
1:55 AM39.2 °F24.8 °F56 %29.86 in10.0 miWNW (290°)16.1 mph25.3 mphRainLight Rain
2:15 AM39.2 °F24.8 °F56 %29.87 in10.0 miWNW (300°)16.1 mph23.0 mphOvercast
2:35 AM39.2 °F24.8 °F56 %29.87 in10.0 miWNW (300°)16.1 mph26.5 mphOvercast
2:55 AM37.4 °F24.8 °F60 %29.89 in10.0 miWNW (290°)19.6 mph24.2 mphOvercast
3:15 AM37.4 °F24.8 °F60 %29.88 in10.0 miWNW (290°)11.5 mph21.9 mphOvercast
3:35 AM37.4 °F24.8 °F60 %29.87 in10.0 miWNW (290°)15.0 mph19.6 mphOvercast
3:55 AM37.4 °F24.8 °F60 %29.88 in10.0 miWNW (290°)16.1 mph25.3 mphOvercast
4:15 AM37.4 °F24.8 °F60 %29.89 in10.0 miWNW (300°)16.1 mph21.9 mphOvercast
4:35 AM37.4 °F24.8 °F60 %29.89 in10.0 miWNW (300°)15.0 mph20.7 mphOvercast
5:15 AM37.4 °F24.8 °F60 %29.90 in10.0 miWNW (300°)12.7 mphOvercast
5:35 AM37.4 °F24.8 °F60 %29.91 in10.0 miNW (310°)12.7 mph18.4 mphOvercast
5:55 AM35.6 °F26.6 °F70 %29.91 in10.0 miNNW (330°)10.4 mphOvercast
6:15 AM33.8 °F26.6 °F75 %29.91 in10.0 miNW (320°)12.7 mphOvercast
6:35 AM33.8 °F26.6 °F75 %29.92 in10.0 miWNW (300°)9.2 mph16.1 mphOvercast
6:55 AM32.0 °F26.6 °F80 %29.93 in10.0 miNW (310°)5.8 mphOvercast
7:15 AM32.0 °F26.6 °F80 %29.93 in10.0 miNW (310°)5.8 mphOvercast
7:35 AM32.0 °F26.6 °F80 %29.93 in10.0 miWNW (300°)5.8 mphOvercast
7:55 AM32.0 °F26.6 °F80 %29.94 in10.0 miNW (310°)5.8 mphOvercast
8:15 AM32.0 °F26.6 °F80 %29.94 in10.0 miWNW (300°)3.5 mphOvercast
8:35 AM32.0 °F26.6 °F80 %29.94 in10.0 miWNW (300°)4.6 mphOvercast
8:55 AM33.8 °F26.6 °F75 %29.95 in10.0 miNW (310°)4.6 mphOvercast
9:15 AM33.8 °F26.6 °F75 %29.94 in10.0 miWest (270°)4.6 mphOvercast
9:35 AM37.4 °F26.6 °F65 %29.95 in10.0 miWest (280°)8.1 mphScattered Clouds
9:55 AM39.2 °F24.8 °F56 %29.95 in10.0 miWest (280°)11.5 mphScattered Clouds
10:15 AM41.0 °F23.0 °F49 %29.96 in10.0 miWest (280°)12.7 mph16.1 mphMostly Cloudy
10:35 AM39.2 °F23.0 °F52 %29.96 in10.0 miWNW (290°)9.2 mphPartly Cloudy
10:55 AM41.0 °F23.0 °F49 %29.96 in10.0 miWNW (300°)9.2 mphMostly Cloudy
11:15 AM41.0 °F23.0 °F49 %29.96 in10.0 miWest (280°)10.4 mphOvercast
11:35 AM42.8 °F23.0 °F46 %29.96 in10.0 miWest (270°)9.2 mphMostly Cloudy
11:55 AM42.8 °F23.0 °F46 %29.95 in10.0 miWNW (290°)12.7 mph16.1 mphScattered Clouds
12:15 PM42.8 °F24.8 °F49 %29.94 in10.0 miWNW (300°)10.4 mphPartly Cloudy
12:35 PM44.6 °F24.8 °F46 %29.93 in10.0 miNW (310°)9.2 mphClear
12:55 PM44.6 °F24.8 °F46 %29.91 in10.0 miNorth (350°)8.1 mphClear
1:15 PM44.6 °F24.8 °F46 %29.90 in10.0 miNNW (330°)6.9 mphPartly Cloudy
1:35 PM44.6 °F24.8 °F46 %29.89 in10.0 miNW (320°)8.1 mphPartly Cloudy
1:55 PM44.6 °F23.0 °F43 %29.89 in10.0 miNW (310°)6.9 mphScattered Clouds
2:15 PM44.6 °F24.8 °F46 %29.88 in10.0 miNNW (340°)6.9 mphClear
2:35 PM44.6 °F23.0 °F43 %29.87 in10.0 miNW (320°)5.8 mphClear
2:55 PM44.6 °F23.0 °F43 %29.86 in10.0 miNNW (330°)5.8 mphClear
3:15 PM44.6 °F23.0 °F43 %29.85 in10.0 miNorth (360°)4.6 mphPartly Cloudy
3:35 PM42.8 °F26.6 °F53 %29.85 in10.0 miSE (130°)5.8 mphScattered Clouds
3:55 PM41.0 °F28.4 °F61 %29.85 in10.0 miESE (120°)6.9 mphMostly Cloudy
4:15 PM41.0 °F28.4 °F61 %29.85 in10.0 miESE (120°)5.8 mphMostly Cloudy
4:35 PM41.0 °F28.4 °F61 %29.84 in10.0 miESE (120°)5.8 mphMostly Cloudy
4:55 PM41.0 °F26.6 °F57 %29.84 in10.0 miESE (120°)4.6 mphOvercast
5:35 PM39.2 °F26.6 °F61 %29.83 in10.0 miSouth (180°)5.8 mphOvercast
5:55 PM35.6 °F26.6 °F70 %29.82 in10.0 miSE (140°)4.6 mphOvercast
6:15 PM37.4 °F26.6 °F65 %29.82 in10.0 miCalmOvercast
6:35 PM37.4 °F26.6 °F65 %29.81 in10.0 miCalmMostly Cloudy
6:55 PM35.6 °F26.6 °F70 %29.81 in10.0 miSouth (170°)3.5 mphMostly Cloudy
7:15 PM33.8 °F24.8 °F70 %29.81 in10.0 miSouth (180°)3.5 mphMostly Cloudy
7:35 PM33.8 °F24.8 °F70 %29.80 in10.0 miSSW (200°)4.6 mphPartly Cloudy
7:55 PM32.0 °F24.8 °F75 %29.80 in10.0 miSW (230°)4.6 mphClear
8:15 PM35.6 °F24.8 °F65 %29.80 in10.0 miCalmClear
8:35 PM33.8 °F24.8 °F70 %29.78 in10.0 miSSE (150°)4.6 mphClear
8:55 PM33.8 °F24.8 °F70 %29.78 in10.0 miSouth (170°)5.8 mphClear
9:15 PM35.6 °F23.0 °F60 %29.77 in10.0 miSSW (210°)4.6 mphClear
9:35 PM39.2 °F23.0 °F52 %29.76 in10.0 miSW (230°)5.8 mphClear
9:55 PM37.4 °F23.0 °F56 %29.77 in10.0 miCalmClear
10:15 PM39.2 °F23.0 °F52 %29.77 in10.0 miWSW (240°)3.5 mphClear
10:35 PM37.4 °F23.0 °F56 %29.76 in10.0 miWest (270°)3.5 mphClear
10:55 PM37.4 °F23.0 °F56 %29.76 in10.0 miCalmClear
11:15 PM39.2 °F23.0 °F52 %29.75 in10.0 miSW (220°)4.6 mphClear
11:35 PM35.6 °F23.0 °F60 %29.75 in10.0 miESE (110°)4.6 mphClear
11:55 PM39.2 °F23.0 °F52 %29.75 in10.0 miNNE (20°)3.5 mphClear
Hourly data recorded from KSPF, located miles away from Sundance, Wyoming







STORIES FROM OUR PARTNERS